RH
77 78 78 79 79 79 80 80 81 81 82 82 83 84 84 88 88 76 45 24 29 67 60 41 48 27 41 59 53 64 95 92 78 85 91 70 62 66 43 45 42 42 55 54 56
78 78 79 78 80 79 80 80 81 81 82 81 83 83 84 87 83 63 43 52 55 67 43 29 29 23 38 44 54 83 94 89 66 64 72 61 63 65 49 44 47 55 52 56 60
77 78 78 78 79 78 79 81 81 82 82 82 82 83 84 86 74 38 55 55 58 64 21 20 24 25 35 35 65 83 94 72 66 52 57 64 69 60 59 67 50 63 62 56 55
77 76 77 78 77 78 78 80 81 79 82 83 82 82 84 87 44 26 67 58 63 46 22 18 31 35 45 45 71 74 78 70 67 54 58 61 58 72 64 57 42 51 53 54 57
76 76 77 78 79 80 79 79 81 81 81 81 82 82 86 71 40 29 69 60 56 26 20 21 40 46 53 48 74 72 69 58 62 55 56 50 60 73 65 54 42 44 47 52 51
82 80 79 80 79 80 79 80 80 81 81 81 80 81 86 35 19 46 43 38 24 22 21 26 43 38 38 34 57 59 56 54 60 63 64 57 67 59 68 53 45 47 47 45 46
83 82 83 80 80 80 81 81 85 84 81 81 79 71 69 28 22 34 24 22 17 18 30 19 32 45 35 23 42 43 66 70 58 56 56 58 70 69 56 58 41 49 49 48 45
82 81 80 79 80 81 82 89 87 83 81 79 77 77 55 25 25 22 26 19 12 17 18 32 32 37 32 20 17 55 62 82 67 64 62 61 89 71 63 62 61 37 41 44 41
84 81 81 81 82 81 83 88 85 81 78 79 89 85 47 31 25 18 21 18 13 15 18 15 26 31 23 26 33 35 72 70 77 52 66 70 91 88 67 70 56 40 36 38 43
84 84 82 81 82 89 92 89 84 81 79 63 47 62 42 24 15 15 19 16 15 17 21 23 30 31 29 32 42 41 65 66 63 68 68 81 82 87 77 71 59 42 37 38 40
84 84 84 83 86 94 94 76 65 72 74 38 34 43 28 22 16 14 15 16 16 24 32 30 30 32 26 26 25 28 29 29 66 67 78 86 75 83 78 82 83 53 40 41 40
85 85 85 85 86 94 98 68 47 32 28 46 29 32 24 23 19 15 15 18 22 33 35 32 34 24 21 22 24 28 25 54 73 73 79 90 81 70 76 78 67 51 44 39 39
93 87 86 86 89 93 71 44 34 29 36 20 33 32 29 23 21 17 18 23 26 33 32 36 25 19 22 23 25 29 25 36 58 78 81 88 89 79 68 84 80 64 60 38 39
94 88 86 90 70 62 42 32 35 27 36 24 20 14 15 20 19 15 18 21 24 28 28 30 21 21 22 25 26 32 15 17 70 70 86 83 91 84 85 76 73 64 75 68 39
93 95 89 87 93 51 26 32 33 23 49 22 16 10 14 17 22 22 16 23 27 22 24 26 23 23 24 23 21 20 14 16 51 59 78 71 86 83 87 89 83 73 76 70 64
93 95 93 91 94 68 50 42 26 37 42 33 18 23 18 17 17 15 19 20 20 24 24 20 16 18 19 15 14 13 16 34 49 78 80 68 81 95 87 82 78 80 73 72 69
94 95 90 62 45 40 37 34 45 51 36 34 37 32 27 17 16 16 21 26 29 37 37 24 22 18 14 18 16 17 25 46 62 80 72 45 68 68 67 66 70 72 67 73 70
94 93 93 71 67 47 44 45 65 41 47 35 32 23 29 19 17 16 22 32 30 31 39 40 36 21 15 17 18 20 20 50 61 66 47 64 84 83 64 64 62 63 63 67 70
95 93 81 57 63 52 48 70 76 54 36 34 33 36 43 37 46 45 52 33 27 28 36 42 34 20 16 13 15 19 33 28 44 39 44 87 85 72 78 81 77 79 77 74 68
92 65 44 36 39 49 57 70 63 42 38 39 44 43 58 51 56 66 62 41 39 31 35 35 41 30 20 15 16 21 22 38 40 39 47 92 94 94 97 95 89 92 97 96 84
79 43 32 28 41 54 70 71 49 39 38 39 38 47 64 63 63 78 68 40 32 36 38 51 46 35 33 27 22 29 36 42 33 44 43 82 94 89 96 92 95 94 95 95 97
68 50 31 31 52 91 81 73 50 40 36 30 36 54 62 63 63 64 59 46 40 39 42 45 53 57 40 31 22 31 32 37 42 38 63 81 98 85 91 90 91 94 94 94 97
66 57 35 28 60 79 75 47 43 45 37 30 33 33 53 57 65 52 51 40 41 33 40 36 57 68 45 37 30 27 28 38 38 41 43 66 95 91 88 90 92 95 94 96 97
68 54 28 29 52 56 62 58 38 29 33 22 26 29 37 50 52 48 50 34 29 29 55 51 63 64 74 54 43 34 28 26 31 41 84 95 97 98 90 88 87 86 88 90 95
67 46 28 28 28 45 60 49 30 27 25 30 36 34 42 51 46 41 36 33 22 48 41 47 70 62 48 38 36 34 32 22 37 57 66 91 89 91 81 89 82 78 78 80 88
60 60 60 54 34 28 44 34 25 26 24 29 45 37 41 47 49 52 39 38 39 38 49 43 53 57 52 36 30 22 20 20 39 53 84 84 90 79 80 78 75 71 67 73 78
72 62 62 66 36 34 44 36 33 33 29 32 40 48 40 34 32 35 37 34 34 36 43 43 55 69 67 50 37 35 31 31 40 58 80 92 91 78 76 70 68 62 63 65 63
Wind_Speed
13 13 13 13 14 13 13 12 13 12 12 13 12 12 13 13 13 3 7 11 9 10 7 5 5 5 4 4 6 3 2 3 6 8 6 7 8 3 10 21 16 4 18 23 20
13 14 14 14 14 14 14 13 13 13 12 13 13 12 13 13 4 9 13 13 14 14 5 7 6 6 3 4 3 3 1 4 2 14 11 9 7 5 13 18 17 21 18 21 23
14 14 14 14 14 14 14 14 14 14 13 12 12 12 12 10 3 9 10 18 16 15 5 4 3 4 4 3 5 5 5 6 6 12 12 8 7 3 13 7 22 28 24 23 24
14 14 14 14 14 14 13 15 14 14 14 13 12 12 12 2 3 3 7 22 12 13 4 3 4 5 6 7 6 4 6 6 6 13 11 12 8 5 6 9 19 25 24 20 20
15 15 15 15 14 15 14 14 14 14 15 13 11 9 3 1 11 3 9 15 8 8 8 8 7 5 4 3 7 2 7 9 12 9 11 12 7 6 10 8 22 24 22 21 18
13 14 15 16 15 15 16 14 14 15 13 12 9 6 2 2 5 8 10 8 7 7 7 9 7 7 8 7 6 9 9 10 9 10 7 12 7 4 4 5 19 23 20 18 18
14 14 14 15 16 17 16 15 14 13 12 9 8 4 2 13 3 6 8 7 5 8 6 13 9 2 7 7 8 11 8 7 9 10 6 12 5 9 8 2 19 18 15 14 12
15 15 14 14 15 16 16 14 14 12 9 9 5 4 9 6 4 3 5 3 6 6 7 5 5 6 6 6 5 5 5 10 9 10 10 5 2 3 2 5 7 16 16 13 18
15 15 14 14 13 14 15 16 17 11 4 3 3 2 11 11 7 10 12 6 5 4 6 10 3 6 3 1 4 2 5 4 9 16 11 3 9 14 9 7 9 12 12 9 20
17 15 14 14 13 12 14 16 6 5 3 7 7 4 6 4 3 8 9 7 5 3 2 3 3 2 4 5 4 3 2 4 8 11 4 4 5 15 15 12 15 14 12 11 16
16 15 15 14 13 9 8 3 3 1 2 9 8 6 8 2 3 4 8 6 3 4 5 4 3 5 8 6 6 1 5 10 5 12 8 3 8 7 14 12 13 11 13 9 17
19 17 16 14 14 9 2 1 7 2 9 15 14 11 12 3 6 6 9 6 5 5 3 4 5 8 5 5 6 3 5 2 15 12 9 11 3 1 8 16 15 16 10 13 12
16 18 17 16 14 3 4 9 6 11 4 8 9 7 6 6 8 10 11 7 6 7 5 6 8 5 5 7 6 5 6 7 7 10 8 12 11 8 4 5 6 4 4 12 18
14 14 15 17 5 5 6 8 3 6 6 10 0 6 4 4 5 9 9 7 3 10 4 7 11 6 10 10 4 5 12 8 17 8 6 12 6 4 7 11 12 11 7 4 10
12 11 12 6 5 2 9 7 7 5 4 7 2 4 4 7 0 3 7 3 8 5 7 10 8 9 8 12 8 12 12 10 17 5 6 10 3 4 7 8 12 10 10 7 5
12 8 8 3 3 11 9 11 5 7 3 9 5 6 2 1 2 1 4 4 3 3 4 7 6 7 10 12 11 13 4 2 8 5 1 9 6 5 13 18 11 8 9 13 7
13 9 5 3 6 3 5 5 6 4 5 6 5 5 2 5 4 4 3 6 6 3 4 7 8 7 7 5 6 5 6 1 2 2 8 7 9 9 17 17 22 26 20 16 15
17 13 8 7 4 4 5 7 5 4 2 5 4 8 2 5 5 4 6 4 3 6 2 2 8 5 5 10 9 6 9 7 6 3 2 6 6 2 7 7 7 11 10 6 13
22 2 3 6 8 3 6 6 3 2 4 8 11 7 7 8 6 4 7 9 9 9 8 2 6 7 5 8 10 7 3 10 7 2 5 3 4 4 8 4 6 7 6 6 10
3 3 5 5 10 6 6 4 3 3 6 4 2 4 6 7 6 7 7 5 9 10 8 6 5 5 10 4 5 9 7 2 4 7 5 3 5 4 3 6 6 6 7 5 3
2 4 5 7 6 7 3 5 5 7 3 3 2 4 1 2 3 1 3 5 7 8 7 4 4 8 4 2 9 2 3 5 4 6 7 4 1 4 9 10 9 8 6 6 5
3 2 5 5 6 2 3 4 3 5 5 7 4 4 2 1 2 1 3 4 1 2 4 4 4 3 8 9 7 5 8 8 7 5 3 4 2 5 8 10 10 8 7 6 6
2 4 2 7 5 2 4 2 4 2 6 1 1 3 4 4 1 2 3 5 9 1 0 5 3 5 10 8 7 4 2 5 5 4 3 7 5 7 7 6 9 12 7 5 3
3 4 5 5 3 8 3 1 4 5 4 7 3 2 2 2 4 4 4 4 7 2 10 5 3 7 5 9 6 9 7 2 6 5 5 3 13 12 11 10 7 10 9 7 6
2 3 4 2 4 3 4 3 2 4 4 7 3 6 1 0 2 5 3 4 2 11 3 6 1 4 7 10 8 5 6 10 3 6 7 16 17 16 14 11 11 11 11 9 8
3 4 5 4 4 7 5 4 7 2 4 5 6 10 8 6 3 3 4 4 2 4 6 2 1 7 8 8 13 8 13 9 5 9 15 16 14 10 11 12 12 11 13 12 10
4 3 5 5 5 7 3 4 6 4 6 6 5 3 6 5 4 7 4 6 5 6 2 3 4 4 5 13 13 8 12 10 9 11 24 16 12 19 17 15 14 12 11 13 9
Wind_Direction
337 337 337 335 331 330 330 331 330 331 331 329 330 329 327 325 311 168 237 224 187 185 116 149 210 220 211 242 211 48 308 190 152 155 142 232 130 77 123 126 141 128 136 139 136
334 334 333 331 329 328 328 327 326 326 330 328 327 326 328 330 290 243 233 214 215 176 167 182 193 168 210 219 210 112 287 227 221 159 180 172 132 108 141 147 123 118 131 139 141
332 331 330 327 325 326 326 324 324 324 327 327 324 322 325 327 304 248 204 204 206 180 186 171 167 183 213 229 165 149 218 218 245 158 163 139 112 76 137 161 145 144 148 150 152
328 329 327 324 322 322 322 321 322 322 321 322 320 319 314 296 215 285 324 187 188 176 181 168 210 190 209 204 161 125 284 245 170 157 148 150 112 97 199 171 143 142 151 154 156
326 325 323 321 320 317 317 316 317 318 318 320 320 323 329 344 253 252 122 160 145 152 189 191 194 190 210 210 116 182 190 230 131 155 137 132 105 120 116 145 140 149 151 163 163
323 320 320 318 317 315 312 311 310 310 312 311 308 316 250 259 248 146 132 144 166 166 194 193 204 204 279 215 172 154 139 138 163 134 133 122 127 89 262 115 140 156 164 171 162
323 322 319 318 315 313 308 305 303 304 306 299 286 242 289 238 314 140 141 180 178 175 188 212 231 254 346 316 167 157 143 143 175 152 126 107 90 142 158 71 154 161 169 176 163
330 328 323 319 315 315 310 303 296 297 300 285 231 233 246 242 237 264 198 222 196 217 227 279 216 259 207 279 295 120 92 156 202 168 164 91 112 75 250 163 196 170 175 178 166
331 330 328 324 319 317 306 296 293 287 279 143 136 195 266 302 171 218 170 191 182 236 249 265 315 217 292 30 15 251 172 161 174 195 147 179 158 218 192 217 193 183 178 145 158
333 333 331 327 323 319 305 292 273 306 193 187 258 326 275 269 217 143 192 164 171 172 332 220 188 244 40 81 211 216 164 151 190 179 147 104 181 169 202 205 200 184 189 143 154
332 332 331 328 324 326 352 20 31 13 245 193 195 239 275 337 265 191 177 141 160 113 173 216 108 218 222 197 213 284 319 285 32 118 68 17 95 199 181 199 230 192 186 158 160
333 331 333 330 323 320 294 192 217 139 298 225 235 232 268 334 301 211 128 146 147 200 198 337 226 230 217 241 260 283 271 34 83 99 85 32 339 271 230 210 205 187 186 168 139
325 332 332 328 320 263 209 233 267 45 320 285 198 209 222 140 215 212 143 174 161 196 196 175 244 224 229 257 270 260 230 240 129 100 42 83 313 269 222 165 198 213 139 176 159
319 327 326 328 336 334 263 267 328 130 34 288 181 246 229 182 277 179 177 148 219 182 206 218 247 220 237 259 207 282 245 244 142 149 178 162 218 266 197 200 189 173 121 74 161
321 315 326 359 290 249 244 354 320 71 11 336 227 162 198 151 32 237 178 141 206 200 128 247 221 232 228 233 221 238 261 246 175 129 131 206 130 266 146 212 202 209 145 139 116
311 299 307 146 211 243 332 309 42 52 261 326 52 351 111 199 263 304 160 131 172 207 273 232 262 174 223 238 230 250 256 125 112 109 14 200 144 206 195 202 171 199 184 163 166
305 282 261 275 232 80 325 30 50 113 340 341 353 349 7 278 236 162 192 181 193 109 330 309 275 262 214 259 293 176 90 324 51 111 212 133 171 233 204 183 193 186 193 172 170
307 302 227 223 247 12 37 51 63 345 297 268 298 328 114 323 272 221 151 186 266 120 93 240 307 200 217 190 211 202 155 153 172 183 224 47 209 307 197 186 175 193 194 162 173
313 109 241 246 196 150 77 56 212 324 293 354 326 49 10 356 67 50 8 190 204 175 168 196 268 314 263 214 156 254 130 189 135 87 97 164 330 316 34 52 100 105 110 163 195
329 345 252 156 150 71 71 189 247 248 353 23 338 23 48 2 36 34 6 61 342 32 341 224 267 243 286 206 228 166 181 119 345 141 233 249 146 235 116 48 99 81 79 56 43
0 14 268 128 79 52 145 207 250 274 164 228 29 83 137 71 83 332 247 334 36 331 338 8 122 286 341 182 216 353 119 76 133 129 169 161 256 286 133 102 89 69 65 59 33
8 3 290 72 65 75 137 186 250 300 336 244 116 119 98 182 51 219 183 173 37 55 347 318 140 282 235 267 249 168 175 138 124 250 111 102 106 99 109 118 108 84 69 42 33
351 264 332 96 117 305 294 155 197 234 296 83 333 129 193 174 85 197 279 203 265 287 72 320 6 13 344 351 6 21 97 118 121 104 181 134 177 159 149 153 137 128 122 104 58
82 5 324 44 105 136 136 164 265 246 252 73 310 58 143 149 235 188 211 299 253 229 64 57 68 136 184 253 264 292 336 17 117 110 145 138 136 154 150 149 122 111 117 113 88
74 283 212 303 324 97 113 169 75 12 29 37 359 340 14 26 29 345 207 271 2 108 65 105 20 16 281 289 272 266 294 296 136 169 130 162 152 157 158 149 130 116 114 105 95
77 44 348 323 326 76 62 356 85 36 63 358 57 48 29 88 31 297 3 27 131 12 152 181 336 14 307 317 349 310 8 305 125 103 88 127 127 143 143 128 128 128 118 109 105
314 327 106 298 356 81 337 37 36 55 32 87 16 47 27 350 295 252 206 258 228 139 165 111 110 58 290 323 323 18 333 302 118 135 133 150 158 151 144 141 136 126 121 120 114